GW2949 Weather Reports


time (UTC)temp
C
wind
direction
speed
KPH
gust
KPH
rain 1hr
cm
rain 24hr
cm
rain mn
cm
humidity
%
barometer
mb
20260506084139 9 131 3.2 6.4 0.00 0.00 0.00 39 1013.0
20260506083118 8 329 3.2 8.0 0.00 0.00 0.00 43 1013.1
20260506082139 8 67 3.2 6.4 0.00 0.00 0.00 43 1012.9
20260506081137 8 313 4.8 9.7 0.00 0.00 0.00 45 1013.0
20260506080158 8 27 4.8 11.3 0.00 0.00 0.00 47 1012.8
20260506073117 8 298 3.2 9.7 0.00 0.00 0.00 47 1012.6
20260506072118 8 131 4.8 9.7 0.00 0.00 0.00 48 1012.6
20260506071117 8 77 1.6 4.8 0.00 0.00 0.00 48 1012.6
20260506070118 7 305 4.8 9.7 0.00 0.00 0.00 51 1012.6
20260506062118 6 26 3.2 8.0 0.00 0.00 0.00 58 1012.4
20260506061118 6 252 3.2 9.7 0.00 0.00 0.00 58 1012.4
20260506060118 6 340 3.2 6.4 0.00 0.00 0.00 60 1012.3
20260506051118 5 316 4.8 9.7 0.00 0.00 0.00 68 1011.8
20260506050118 4 113 4.8 8.0 0.00 0.00 0.00 69 1011.7
20260506044119 2 330 6.4 9.7 0.00 0.00 0.00 78 1011.2
20260506043117 2 351 4.8 9.7 0.00 0.00 0.00 77 1011.2
20260506042118 2 346 4.8 11.3 0.00 0.00 0.00 79 1011.0
20260506041117 2 91 3.2 9.7 0.00 0.00 0.00 79 1011.0
20260506040119 2 6 3.2 6.4 0.00 0.00 0.00 79 1010.9
20260506035117 2 345 3.2 9.7 0.00 0.00 0.00 79 1010.9
20260506034140 2 89 3.2 8.0 0.00 0.00 0.00 78 1010.7
20260506033119 2 109 3.2 6.4 0.00 0.00 0.00 79 1010.6
20260506032138 2 71 3.2 4.8 0.00 0.00 0.00 78 1010.6
20260506031117 2 78 3.2 6.4 0.00 0.00 0.00 78 1010.6
20260506030119 2 110 3.2 6.4 0.00 0.00 0.00 78 1010.5
20260506025118 2 117 3.2 8.0 0.00 0.00 0.00 78 1010.4
20260506024119 2 73 3.2 4.8 0.00 0.00 0.00 78 1010.4
20260506023118 2 319 3.2 6.4 0.00 0.00 0.00 78 1010.3
20260506022118 2 349 3.2 6.4 0.00 0.00 0.00 78 1010.1
20260506021118 2 326 3.2 8.0 0.00 0.00 0.00 78 1010.2
20260506020139 2 308 3.2 6.4 0.00 0.00 0.00 79 1010.1
20260506015118 2 290 4.8 9.7 0.00 0.00 0.00 79 1010.1
20260506014118 2 302 3.2 8.0 0.00 0.00 0.00 79 1010.0
20260506013118 2 251 3.2 9.7 0.00 0.00 0.00 78 1010.0
20260506012138 2 301 4.8 8.0 0.00 0.00 0.00 78 1010.0
20260506011118 2 317 3.2 6.4 0.00 0.00 0.00 77 1009.9
20260506010117 2 318 3.2 8.0 0.00 0.00 0.00 76 1009.9
20260506005139 3 331 4.8 9.7 0.00 0.00 0.00 75 1009.3
20260506004118 3 222 3.2 6.4 0.00 0.00 0.00 76 1009.3
20260506003118 3 20 3.2 9.7 0.00 0.00 0.00 75 1009.3
20260506002239 3 21 3.2 6.4 0.00 0.00 0.00 74 1009.2
20260506001138 3 255 3.2 9.7 0.00 0.00 0.00 74 1009.2
20260506000139 3 187 3.2 11.3 0.00 0.00 0.00 73 1009.2
20260505235118 3 97 3.2 8.0 0.00 0.00 0.00 73 1009.1
20260505234118 3 357 4.8 11.3 0.00 0.00 0.00 72 1009.1
20260505233138 3 289 4.8 11.3 0.00 0.00 0.00 72 1008.9
20260505232158 3 349 4.8 17.7 0.00 0.00 0.00 71 1008.9
20260505231138 3 12 3.2 9.7 0.00 0.00 0.00 73 1008.7
20260505230118 3 331 4.8 9.7 0.00 0.00 0.00 71 1008.8
20260505225117 3 338 4.8 8.0 0.00 0.00 0.00 71 1008.7
20260505224118 4 344 8.0 12.9 0.00 0.00 0.00 71 1008.7
20260505223118 4 327 4.8 12.9 0.00 0.00 0.00 70 1008.7
20260505222119 4 59 4.8 12.9 0.00 0.00 0.00 70 1008.7
20260505221118 4 290 4.8 9.7 0.00 0.00 0.00 68 1008.6
20260505220118 4 330 4.8 12.9 0.00 0.00 0.00 68 1008.5
20260505215118 4 24 4.8 11.3 0.00 0.00 0.00 68 1008.5
20260505214119 5 149 4.8 8.0 0.00 0.00 0.00 67 1008.4
20260505213117 5 100 4.8 12.9 0.00 0.00 0.00 65 1008.4
20260505212119 5 41 3.2 8.0 0.00 0.00 0.00 65 1008.3
20260505211117 5 148 4.8 14.5 0.00 0.00 0.00 63 1008.2
20260505210118 5 256 6.4 16.1 0.00 0.00 0.00 64 1008.2
20260505205157 6 351 6.4 12.9 0.00 0.00 0.00 57 1007.4
20260505204119 6 339 6.4 14.5 0.00 0.00 0.00 58 1007.3
20260505203118 6 342 4.8 11.3 0.00 0.00 0.00 55 1007.4
20260505202119 6 74 3.2 8.0 0.00 0.00 0.00 54 1007.3
20260505201118 6 4 4.8 9.7 0.00 0.00 0.00 54 1007.2
20260505200139 6 104 4.8 12.9 0.00 0.00 0.00 50 1007.1
20260505195138 7 122 4.8 9.7 0.00 0.00 0.00 47 1007.0
20260505194119 7 143 4.8 12.9 0.00 0.00 0.00 48 1006.8
20260505193158 7 72 4.8 11.3 0.00 0.00 0.00 47 1007.0
20260505192118 7 81 6.4 11.3 0.00 0.00 0.00 48 1006.8
20260505191118 7 103 4.8 9.7 0.00 0.00 0.00 46 1006.8
20260505190118 7 111 4.8 11.3 0.00 0.00 0.00 48 1006.6
20260505185118 7 19 6.4 14.5 0.00 0.00 0.00 51 1006.5
20260505184118 7 133 6.4 12.9 0.00 0.00 0.00 44 1006.3
20260505183117 7 111 6.4 9.7 0.00 0.00 0.00 42 1006.4
20260505182139 8 21 6.4 14.5 0.00 0.00 0.00 43 1006.3
20260505181118 8 91 4.8 9.7 0.00 0.00 0.00 43 1006.2
20260505180119 8 53 8.0 16.1 0.00 0.00 0.00 44 1006.2
20260505175117 8 168 6.4 14.5 0.00 0.00 0.00 45 1006.1
20260505174118 8 118 4.8 8.0 0.00 0.00 0.00 42 1006.1
20260505173118 8 150 6.4 16.1 0.00 0.00 0.00 43 1006.1
20260505172119 8 102 8.0 20.9 0.00 0.00 0.00 40 1006.0
20260505171117 8 123 6.4 14.5 0.00 0.00 0.00 42 1005.9
20260505170118 9 114 6.4 16.1 0.00 0.00 0.00 42 1005.8
20260505165119 10 95 8.0 19.3 0.00 0.00 0.00 34 1005.4
20260505164118 10 50 8.0 24.1 0.00 0.00 0.00 35 1005.3
20260505163117 10 87 4.8 11.3 0.00 0.00 0.00 39 1005.4
20260505162139 10 297 6.4 16.1 0.00 0.00 0.00 36 1005.3
20260505161117 11 267 6.4 12.9 0.00 0.00 0.00 35 1005.2
20260505160118 11 355 6.4 16.1 0.00 0.00 0.00 32 1005.2
20260505153117 11 324 8.0 17.7 0.00 0.00 0.00 36 1005.0
20260505152119 10 113 3.2 8.0 0.00 0.00 0.00 38 1005.1
20260505151118 11 350 6.4 12.9 0.00 0.00 0.00 36 1005.1
20260505150119 11 304 9.7 20.9 0.00 0.00 0.00 35 1005.1
20260505140118 11 135 6.4 11.3 0.00 0.00 0.00 35 1004.8
20260505130117 12 64 6.4 12.9 0.00 0.00 0.00 38 1004.4
20260505124117 11 248 4.8 16.1 0.00 0.00 0.00 45 1004.1
20260505123118 11 335 8.0 17.7 0.00 0.00 0.00 42 1004.0
20260505122118 12 88 6.4 16.1 0.00 0.00 0.00 40 1003.8
20260505121118 11 314 8.0 20.9 0.00 0.00 0.00 39 1003.8
20260505120139 11 317 8.0 14.5 0.00 0.03 0.00 41 1003.7
20260505115118 11 306 9.7 27.4 0.00 0.03 0.00 43 1003.7
20260505114118 11 48 6.4 16.1 0.00 0.05 0.00 41 1003.5
20260505113118 11 302 14.5 25.7 0.00 0.05 0.00 40 1003.3
20260505112119 11 322 8.0 17.7 0.00 0.08 0.00 43 1003.4
20260505111117 12 312 6.4 12.9 0.00 0.10 0.00 44 1003.3
20260505110118 11 322 11.3 24.1 0.00 0.10 0.00 42 1003.0
20260505102138 11 310 8.0 17.7 0.00 0.18 0.00 47 1002.7
20260505101117 11 313 11.3 27.4 0.00 0.18 0.00 53 1002.4
20260505100118 9 283 4.8 11.3 0.00 0.18 0.00 70 1002.5
20260505095137 8 35 6.4 16.1 0.00 0.20 0.00 70 1002.4
20260505094118 9 181 4.8 12.9 0.00 0.20 0.00 70 1002.1
20260505093117 9 201 11.3 24.1 0.00 0.23 0.00 70 1002.2
20260505092118 9 208 11.3 24.1 0.00 0.23 0.00 70 1002.1
20260505091117 8 189 8.0 16.1 0.00 0.23 0.00 73 1001.6
20260505090118 8 198 19.3 32.2 0.00 0.23 0.00 74 1001.8
20260505085117 8 201 12.9 22.5 0.00 0.23 0.00 74 1001.4